{"data":{"norad_id":51644,"epoch":"2026-05-25T02:56:29.249664Z","epoch_age_seconds":64158,"freshness":"FRESH","line1":"1 51644U 22012Y   26145.12256076  .00000018  00000+0  12697-4 0  9991","line2":"2 51644  87.9154  10.4667 0002119  80.4517 279.6854 13.17649354210634","mean_motion":13.17649354,"eccentricity":0.0002119,"inclination_deg":87.9154,"raan_deg":10.4667,"arg_perigee_deg":80.4517,"mean_anomaly_deg":279.6854,"bstar":1.2697e-5,"rev_number":21063,"period_min":109.28552392399,"perigee_km":1192.1074289108,"apogee_km":1195.3163784762,"semimajor_km":7571.8489036935,"source":"CELESTRAK","updated_at":"2026-05-25T13:38:22.580961Z"}}